Location: Newark
(48.6461°N, 4.3644°W)
Time: 05:54:51
(UTC+00:00)

Vanguard 1 - All Passes

Search period start: 27 January 2020 00:00
Search period end: 06 February 2020 00:00
Orbit: 650 x 3833 km, 34.2° (Epoch: 26 January)

Date Brightness Start Highest point End Pass type
(mag) Time Alt. Az. Time Alt. Az. Time Alt. Az.
27 Jan - 18:15:01 10° SSW 18:17:43 15° S 18:20:44 10° SE visible
27 Jan - 20:34:29 10° SW 20:37:04 13° S 20:40:06 10° SSE visible
28 Jan - 16:18:06 10° S 16:19:19 11° SSE 16:20:32 10° SSE daylight
28 Jan - 18:35:44 10° SW 18:38:22 15° S 18:41:19 10° SE visible
29 Jan - 16:37:52 10° SSW 16:39:56 13° S 16:41:59 10° SE daylight
29 Jan - 18:56:43 10° SW 18:59:01 14° S 19:01:36 10° SSE visible
30 Jan - 16:58:11 10° SSW 17:00:34 14° S 17:02:55 10° SE daylight
30 Jan - 19:18:10 10° SSW 19:19:42 11° S 19:21:20 10° S visible
31 Jan - 15:00:33 10° S 15:02:03 11° S 15:03:28 10° SSE daylight
31 Jan - 17:18:49 10° SW 17:21:12 14° S 17:23:35 10° SSE daylight
01 Feb - 15:20:09 10° SSW 15:22:44 13° S 15:25:02 10° SE daylight
01 Feb - 17:39:42 10° SW 17:41:50 13° S 17:43:58 10° SSE daylight
02 Feb - 15:40:23 10° SSW 15:43:24 15° S 15:46:03 10° SE daylight
02 Feb - 18:01:01 10° SSW 18:02:27 11° SSW 18:03:53 10° S visible
03 Feb - 13:41:40 10° SSW 13:44:40 13° SSE 13:47:13 10° SE daylight
03 Feb - 16:00:55 10° SW 16:04:02 16° S 16:06:48 10° SE daylight
04 Feb - 14:01:20 10° SSW 14:05:24 16° S 14:08:39 10° SE daylight
04 Feb - 16:21:41 10° SW 16:24:40 15° S 16:27:19 10° SSE daylight
05 Feb - 12:03:24 10° S 12:06:11 12° SSE 12:08:37 10° SE daylight
05 Feb - 14:21:32 10° SW 14:26:07 18° S 14:29:40 10° SE daylight
05 Feb - 16:42:42 10° SW 16:45:15 14° SSW 16:47:36 10° SSE daylight
